Location: Unspecified
(0.0000°N, 0.0000°E)
Time: 00:34:51
(UTC+00:00)

QIANFAN-31 - Pass Details

Date: 12 March 2026
Orbit: 1037 x 1049 km, 89.0° (Epoch: 14 April)

Event Time Altitude Azimuth Distance (km) Brightness Sun altitude
Rises 05:42:00 0° 352° (N) 3,778 ? -6.9°
Reaches altitude 10° 05:44:36 10° 347° (NNW) 2,829 ? -6.3°
Maximum altitude 05:50:49 50° 273° (W) 1,291 ? -4.7°
Drops below altitude 10° 05:57:04 10° 199° (SSW) 2,844 ? -3.2°
Sets 05:59:42 0° 194° (SSW) 3,801 ? -2.5°
